SWA273 MKJS-KMCO

Flight info

Callsign SWA273
Flight time N/A
Altitude 34000
Route ALTIB UM779 ZEUSS DCT OCTAL MUNGI1
Aircraft B738/M-SADE2E3GIJ4RWZ/LB1D1

Departure

Time 2026-04-30 11:41
Airport Sangster International Airport (MKJS)

Arrival

Time N/A
Airport Orlando International Airport (KMCO)
Time Latitude Longitude Altitude Speed Heading
2026-04-30 11:25 18.49874 -77.91890 12 ft 0 kts 154°
2026-04-30 11:31 18.49878 -77.91885 12 ft 4 kts 101°
2026-04-30 11:31 18.49891 -77.91903 13 ft 4 kts 151°
2026-04-30 11:31 18.49916 -77.91912 14 ft 4 kts 180°
2026-04-30 11:32 18.49939 -77.91905 14 ft 4 kts 224°
2026-04-30 11:32 18.49949 -77.91892 12 ft 1 kts 245°
2026-04-30 11:32 18.49950 -77.91890 12 ft 0 kts 245°
2026-04-30 11:36 18.49948 -77.91894 12 ft 2 kts 245°
2026-04-30 11:37 18.49934 -77.91924 12 ft 8 kts 245°
2026-04-30 11:37 18.49904 -77.91994 13 ft 13 kts 245°
2026-04-30 11:37 18.49857 -77.92099 12 ft 18 kts 245°
2026-04-30 11:37 18.49809 -77.92214 13 ft 17 kts 246°
2026-04-30 11:38 18.49762 -77.92323 13 ft 16 kts 246°
2026-04-30 11:38 18.49774 -77.92416 11 ft 9 kts 329°
2026-04-30 11:38 18.49829 -77.92442 11 ft 9 kts 337°
2026-04-30 11:38 18.49885 -77.92433 12 ft 8 kts 34°
2026-04-30 11:39 18.49902 -77.92421 12 ft 0 kts 40°
2026-04-30 11:39 18.49902 -77.92420 12 ft 1 kts 46°
2026-04-30 11:39 18.49903 -77.92413 12 ft 2 kts 73°
2026-04-30 11:39 18.49913 -77.92381 12 ft 5 kts 69°
2026-04-30 11:40 18.49925 -77.92354 13 ft 2 kts 65°
2026-04-30 11:40 18.50033 -77.92107 14 ft 81 kts 65°
2026-04-30 11:40 18.50390 -77.91292 16 ft 160 kts 65°
2026-04-30 11:40 18.50911 -77.90086 534 ft 192 kts 66°
2026-04-30 11:41 18.51503 -77.88734 1233 ft 220 kts 56°
2026-04-30 11:41 18.52583 -77.87631 2237 ft 218 kts 45°
2026-04-30 11:41 18.53646 -77.86418 2722 ft 236 kts 51°
2026-04-30 11:41 18.54756 -77.85023 3058 ft 256 kts 51°
2026-04-30 11:42 18.55914 -77.83558 3826 ft 262 kts 51°
2026-04-30 11:42 18.57224 -77.82222 4693 ft 267 kts 32°
2026-04-30 11:42 18.59003 -77.81642 5469 ft 273 kts
2026-04-30 11:42 18.60905 -77.81791 6283 ft 277 kts 352°
2026-04-30 11:43 18.62825 -77.82113 7050 ft 281 kts 351°
2026-04-30 11:43 18.64739 -77.82465 7794 ft 285 kts 350°
2026-04-30 11:43 18.66703 -77.82830 8540 ft 289 kts 349°
2026-04-30 11:43 18.68695 -77.83198 9290 ft 293 kts 349°
2026-04-30 11:44 18.70717 -77.83566 10055 ft 297 kts 349°
2026-04-30 11:44 18.72790 -77.83939 10503 ft 313 kts 349°
2026-04-30 11:44 18.75023 -77.84339 10667 ft 336 kts 349°
2026-04-30 11:44 18.77390 -77.84759 10959 ft 352 kts 349°
2026-04-30 11:45 18.79827 -77.85189 11597 ft 355 kts 349°
2026-04-30 11:45 18.82277 -77.85619 12295 ft 358 kts 349°
2026-04-30 11:45 18.84746 -77.86051 12958 ft 361 kts 349°
2026-04-30 11:45 18.87242 -77.86487 13604 ft 364 kts 349°
2026-04-30 11:46 18.89752 -77.86925 14192 ft 367 kts 349°
2026-04-30 11:46 18.92242 -77.87360 14810 ft 368 kts 349°
2026-04-30 11:46 18.94767 -77.87800 15442 ft 368 kts 349°
2026-04-30 11:46 18.97307 -77.88245 16031 ft 371 kts 350°
2026-04-30 11:47 18.99866 -77.88692 16588 ft 374 kts 350°
2026-04-30 11:47 19.02440 -77.89142 17143 ft 376 kts 350°
2026-04-30 11:47 19.05031 -77.89595 17710 ft 379 kts 350°
2026-04-30 11:47 19.07645 -77.90053 18217 ft 383 kts 350°
2026-04-30 11:48 19.10281 -77.90514 18681 ft 385 kts 350°
2026-04-30 11:48 19.12931 -77.90978 19164 ft 387 kts 350°
2026-04-30 11:48 19.15593 -77.91444 19648 ft 389 kts 350°
2026-04-30 11:48 19.18276 -77.91914 20124 ft 391 kts 350°
2026-04-30 11:49 19.20968 -77.92386 20591 ft 393 kts 350°
2026-04-30 11:49 19.23674 -77.92861 21045 ft 396 kts 350°
2026-04-30 11:49 19.26399 -77.93339 21494 ft 398 kts 350°
2026-04-30 11:49 19.29139 -77.93819 21939 ft 400 kts 350°
2026-04-30 11:50 19.31859 -77.94297 22379 ft 402 kts 350°
2026-04-30 11:50 19.34626 -77.94782 22818 ft 404 kts 350°
2026-04-30 11:50 19.37413 -77.95272 23234 ft 407 kts 350°
2026-04-30 11:50 19.40220 -77.95765 23627 ft 409 kts 350°
2026-04-30 11:51 19.43043 -77.96261 23970 ft 411 kts 350°
2026-04-30 11:51 19.45872 -77.96759 24305 ft 413 kts 350°
2026-04-30 11:51 19.48720 -77.97260 24638 ft 415 kts 349°
2026-04-30 11:51 19.51578 -77.97763 24967 ft 417 kts 349°
2026-04-30 11:52 19.54449 -77.98268 25300 ft 419 kts 349°
2026-04-30 11:52 19.57333 -77.98776 25640 ft 421 kts 349°
2026-04-30 11:52 19.60232 -77.99287 25954 ft 423 kts 349°
2026-04-30 11:52 19.62159 -77.99627 26167 ft 424 kts 349°
2026-04-30 11:53 19.65079 -78.00141 26493 ft 426 kts 349°
2026-04-30 11:53 19.68008 -78.00658 26806 ft 428 kts 349°
2026-04-30 11:53 19.71950 -78.01353 27221 ft 430 kts 349°
2026-04-30 11:53 19.73908 -78.01698 27421 ft 431 kts 349°
2026-04-30 11:54 19.76874 -78.02222 27728 ft 433 kts 349°
2026-04-30 11:54 19.80815 -78.02918 28123 ft 435 kts 349°
2026-04-30 11:54 19.82836 -78.03275 28322 ft 436 kts 349°
2026-04-30 11:54 19.86808 -78.03977 28704 ft 438 kts 349°
2026-04-30 11:55 19.88796 -78.04328 28884 ft 439 kts 349°
2026-04-30 11:55 19.91812 -78.04861 29166 ft 440 kts 349°
2026-04-30 11:55 19.94859 -78.05401 29451 ft 441 kts 349°
2026-04-30 11:55 19.97892 -78.05937 29711 ft 443 kts 349°
2026-04-30 11:56 20.00942 -78.06477 29975 ft 444 kts 349°
2026-04-30 11:56 20.03997 -78.07019 30204 ft 446 kts 349°
2026-04-30 11:56 20.07062 -78.07562 30429 ft 447 kts 349°
2026-04-30 11:56 20.10129 -78.08105 30669 ft 447 kts 349°
2026-04-30 11:57 20.13196 -78.08649 30924 ft 448 kts 348°
2026-04-30 11:57 20.16283 -78.09197 31151 ft 449 kts 348°
2026-04-30 11:57 20.19365 -78.09744 31378 ft 450 kts 348°
2026-04-30 11:57 20.22456 -78.10293 31627 ft 450 kts 348°
2026-04-30 11:58 20.25545 -78.10841 31863 ft 451 kts 348°
2026-04-30 11:58 20.28647 -78.11393 32085 ft 452 kts 348°
2026-04-30 11:58 20.31746 -78.11944 32337 ft 452 kts 348°
2026-04-30 11:58 20.34853 -78.12496 32569 ft 453 kts 347°
2026-04-30 11:59 20.37964 -78.13050 32804 ft 454 kts 347°
2026-04-30 11:59 20.41040 -78.13597 33046 ft 454 kts 347°
2026-04-30 11:59 20.44156 -78.14152 33289 ft 454 kts 347°
2026-04-30 11:59 20.47279 -78.14708 33511 ft 455 kts 347°
2026-04-30 12:00 20.50405 -78.15265 33751 ft 455 kts 347°
2026-04-30 12:00 20.53531 -78.15822 33979 ft 456 kts 346°
2026-04-30 12:00 20.59840 -78.16949 33999 ft 460 kts 346°
2026-04-30 12:01 20.66130 -78.18070 33988 ft 454 kts 346°
2026-04-30 12:01 20.72304 -78.19171 34002 ft 452 kts 346°
2026-04-30 12:02 20.78497 -78.20279 34008 ft 451 kts 347°
2026-04-30 12:02 20.84681 -78.21387 33995 ft 450 kts 347°
2026-04-30 12:03 20.93932 -78.23045 33996 ft 449 kts 347°
2026-04-30 12:04 21.00090 -78.24149 34000 ft 449 kts 347°
2026-04-30 12:04 21.06241 -78.25253 33999 ft 448 kts 347°
2026-04-30 12:05 21.12392 -78.26359 34017 ft 447 kts 347°
2026-04-30 12:05 21.18534 -78.27463 34027 ft 447 kts 347°
2026-04-30 12:06 21.24633 -78.28561 34018 ft 448 kts 347°
2026-04-30 12:06 21.27714 -78.29116 34131 ft 450 kts 347°
2026-04-30 12:06 21.30802 -78.29672 34392 ft 449 kts 347°
2026-04-30 12:06 21.33874 -78.30225 34692 ft 446 kts 347°
2026-04-30 12:07 21.36927 -78.30774 34990 ft 444 kts 346°
2026-04-30 12:07 21.39973 -78.31323 35246 ft 443 kts 346°
2026-04-30 12:07 21.43020 -78.31873 35428 ft 443 kts 346°
2026-04-30 12:07 21.46062 -78.32423 35616 ft 444 kts 346°
2026-04-30 12:08 21.49111 -78.32974 35835 ft 443 kts 346°
2026-04-30 12:08 21.52147 -78.33523 36062 ft 442 kts 346°
2026-04-30 12:08 21.55178 -78.34071 36272 ft 442 kts 346°
2026-04-30 12:08 21.58212 -78.34619 36460 ft 442 kts 346°
2026-04-30 12:09 21.61245 -78.35168 36660 ft 442 kts 346°
2026-04-30 12:09 21.64279 -78.35717 36859 ft 441 kts 346°
2026-04-30 12:09 21.67263 -78.36257 37048 ft 441 kts 346°
2026-04-30 12:09 21.70291 -78.36806 37219 ft 441 kts 346°
2026-04-30 12:10 21.73317 -78.37354 37415 ft 441 kts 345°
2026-04-30 12:10 21.76343 -78.37903 37603 ft 440 kts 345°
2026-04-30 12:10 21.79360 -78.38450 37771 ft 440 kts 345°
2026-04-30 12:10 21.82383 -78.38999 37917 ft 440 kts 345°
2026-04-30 12:11 21.85406 -78.39548 38000 ft 442 kts 345°
2026-04-30 12:11 21.91484 -78.40653 38004 ft 442 kts 345°
2026-04-30 12:12 21.97546 -78.41753 38006 ft 440 kts 345°
2026-04-30 12:12 22.03564 -78.42847 38009 ft 438 kts 345°
2026-04-30 12:13 22.09521 -78.43932 38007 ft 436 kts 345°
2026-04-30 12:13 22.15515 -78.45025 38003 ft 435 kts 345°
2026-04-30 12:14 22.21481 -78.46114 38009 ft 435 kts 345°
2026-04-30 12:14 22.27466 -78.47207 38004 ft 435 kts 345°
2026-04-30 12:15 22.33407 -78.48294 38004 ft 436 kts 346°
2026-04-30 12:15 22.39403 -78.49391 38004 ft 437 kts 346°
2026-04-30 12:16 22.45422 -78.50493 38001 ft 438 kts 346°
2026-04-30 12:16 22.51440 -78.51595 38001 ft 439 kts 346°
2026-04-30 12:17 22.60503 -78.53258 38005 ft 440 kts 346°
2026-04-30 12:17 22.66502 -78.54359 38003 ft 440 kts 346°
2026-04-30 12:18 22.72544 -78.55470 38008 ft 440 kts 346°
2026-04-30 12:18 22.78587 -78.56582 38004 ft 440 kts 346°
2026-04-30 12:19 22.84624 -78.57712 38002 ft 439 kts 346°
2026-04-30 12:19 22.90643 -78.58848 38002 ft 439 kts 347°
2026-04-30 12:20 22.96656 -78.59982 38004 ft 438 kts 347°
2026-04-30 12:20 23.02649 -78.61112 38014 ft 437 kts 347°
2026-04-30 12:21 23.08642 -78.62242 38015 ft 436 kts 347°
2026-04-30 12:21 23.14579 -78.63362 38002 ft 435 kts 347°
2026-04-30 12:22 23.20551 -78.64491 38011 ft 435 kts 347°
2026-04-30 12:22 23.26514 -78.65618 38004 ft 434 kts 347°
2026-04-30 12:23 23.32467 -78.66745 38002 ft 434 kts 347°
2026-04-30 12:23 23.38417 -78.67872 38005 ft 434 kts 347°
2026-04-30 12:24 23.44365 -78.69000 38000 ft 433 kts 348°
2026-04-30 12:24 23.50263 -78.70120 38011 ft 433 kts 348°
2026-04-30 12:25 23.56211 -78.71249 38004 ft 433 kts 348°
2026-04-30 12:25 23.62149 -78.72378 38001 ft 433 kts 348°
2026-04-30 12:26 23.68087 -78.73508 38001 ft 433 kts 348°
2026-04-30 12:26 23.74018 -78.74638 38003 ft 433 kts 348°
2026-04-30 12:27 23.79958 -78.75771 38003 ft 433 kts 348°
2026-04-30 12:27 23.85852 -78.76896 38003 ft 432 kts 348°
2026-04-30 12:28 23.91784 -78.78029 38007 ft 432 kts 348°
2026-04-30 12:28 23.97707 -78.79187 37996 ft 431 kts 344°
2026-04-30 12:29 24.03256 -78.81556 38004 ft 427 kts 329°
2026-04-30 12:29 24.08334 -78.84839 37995 ft 427 kts 328°
2026-04-30 12:30 24.13432 -78.88178 38002 ft 427 kts 328°
2026-04-30 12:30 24.18548 -78.91498 38004 ft 427 kts 328°
2026-04-30 12:31 24.23679 -78.94807 38004 ft 427 kts 328°
2026-04-30 12:31 24.28776 -78.98089 38002 ft 428 kts 328°
2026-04-30 12:32 24.33910 -79.01397 38004 ft 428 kts 328°
2026-04-30 12:32 24.39046 -79.04711 37997 ft 428 kts 328°
2026-04-30 12:33 24.44185 -79.08030 38003 ft 429 kts 328°
2026-04-30 12:33 24.49325 -79.11353 38002 ft 429 kts 328°
2026-04-30 12:34 24.54476 -79.14686 37999 ft 429 kts 328°
2026-04-30 12:34 24.59627 -79.18022 38003 ft 430 kts 328°
2026-04-30 12:35 24.64748 -79.21342 37999 ft 430 kts 328°
2026-04-30 12:35 24.69911 -79.24693 38002 ft 431 kts 328°
2026-04-30 12:36 24.75078 -79.28050 38001 ft 431 kts 328°
2026-04-30 12:36 24.80240 -79.31406 38003 ft 431 kts 328°
2026-04-30 12:37 24.85410 -79.34771 38001 ft 432 kts 328°
2026-04-30 12:37 24.90583 -79.38141 38006 ft 432 kts 328°
2026-04-30 12:38 24.95723 -79.41493 38003 ft 432 kts 328°
2026-04-30 12:38 25.00898 -79.44871 38003 ft 432 kts 328°
2026-04-30 12:39 25.06082 -79.48259 38004 ft 432 kts 328°
2026-04-30 12:39 25.11255 -79.51642 38003 ft 432 kts 328°
2026-04-30 12:40 25.16425 -79.55027 38002 ft 431 kts 328°
2026-04-30 12:40 25.21582 -79.58407 38004 ft 430 kts 328°
2026-04-30 12:41 25.26727 -79.61782 37998 ft 429 kts 328°
2026-04-30 12:41 25.31824 -79.65130 38000 ft 428 kts 328°
2026-04-30 12:42 25.36933 -79.68488 37998 ft 426 kts 328°
2026-04-30 12:42 25.42023 -79.71837 38000 ft 425 kts 329°
2026-04-30 12:43 25.47103 -79.75183 37996 ft 423 kts 329°
2026-04-30 12:43 25.51302 -79.77951 37999 ft 422 kts 329°
2026-04-30 12:44 25.56334 -79.81272 37997 ft 421 kts 329°
2026-04-30 12:44 25.61367 -79.84596 38001 ft 420 kts 329°
2026-04-30 12:45 25.63873 -79.86253 38001 ft 419 kts 329°
2026-04-30 12:45 25.68406 -79.89251 37853 ft 421 kts 329°
2026-04-30 12:46 25.70941 -79.90929 37448 ft 422 kts 329°
2026-04-30 12:46 25.71789 -79.91490 37325 ft 420 kts 329°